Lid_Strength_Index
3 3 3 3 3 3 3 3 2 2 2 1 1 0 0 0 0 1 4 2 0 -3 -2 3 2 2 2 3 3 3 7 9 8 8 7 5 6 5 4 4 4 3 3 2 1
3 3 3 3 3 3 3 3 2 2 1 1 1 0 0 0 1 5 -0 -3 -3 -3 3 4 5 3 4 4 3 5 7 8 6 6 6 5 5 5 5 5 4 4 3 2 2
3 3 3 3 3 3 3 3 2 2 1 1 1 1 0 0 4 5 -2 -2 -3 -1 3 3 4 4 5 4 5 5 8 6 6 5 5 5 5 4 5 6 6 6 4 3 2
3 3 3 3 3 3 3 3 2 2 1 1 1 1 0 1 8 4 -2 -2 -2 2 3 5 5 6 6 7 6 7 6 6 5 6 6 6 5 6 7 7 6 5 3 3 3
3 3 3 3 3 3 3 3 2 2 2 1 1 1 2 5 6 3 -1 -0 3 3 5 5 6 6 7 7 7 7 7 7 7 7 7 6 7 6 7 6 5 5 4 3 3
3 3 3 3 3 3 3 2 2 1 1 2 2 1 3 8 4 4 4 4 4 4 5 5 6 6 7 8 8 7 7 7 7 7 7 7 7 6 6 5 5 5 5 4 3
4 3 3 3 3 3 3 2 2 1 1 1 1 2 6 7 4 4 4 4 4 4 6 5 5 6 7 9 7 7 8 7 6 6 7 6 8 8 6 5 6 5 5 5 4
4 3 3 3 3 2 2 2 1 2 1 1 1 2 7 4 3 4 4 5 4 4 4 4 4 6 7 6 7 8 8 9 8 7 7 7 9 7 6 6 6 6 6 5 5
4 4 4 4 3 2 2 2 1 1 1 1 2 4 8 4 5 4 4 6 5 4 4 5 5 6 7 8 9 8 10 10 10 8 8 7 9 7 5 6 6 6 6 6 5
4 4 4 4 4 3 3 3 3 2 1 1 3 6 6 7 5 5 5 5 6 6 6 6 6 7 8 9 11 10 11 10 10 9 8 8 9 8 7 7 7 6 6 6 6
4 3 3 3 3 3 3 3 4 5 4 6 6 7 6 5 5 6 5 6 6 7 9 7 9 10 9 9 9 9 10 11 10 9 9 9 9 8 7 7 8 7 7 7 6
4 4 3 3 3 3 3 4 6 4 8 6 6 6 6 6 8 7 5 7 8 9 8 9 10 9 9 9 9 10 10 11 10 9 9 9 10 8 8 8 8 8 8 8 7
4 4 4 3 4 4 4 5 3 3 7 8 6 7 6 6 8 7 6 7 8 9 9 10 9 9 9 10 10 10 10 10 10 9 8 9 10 9 8 8 8 8 8 8 8
4 3 3 4 5 5 5 4 2 3 8 9 8 7 6 6 8 6 5 7 8 9 9 9 9 9 10 10 9 10 9 10 10 11 12 9 12 10 9 9 9 9 9 8 8
4 4 3 4 5 5 5 3 2 3 12 9 8 4 6 7 7 7 5 6 9 9 9 10 10 10 10 10 9 10 9 9 10 10 10 11 12 11 9 11 11 10 9 9 8
4 4 4 5 4 6 4 2 3 9 13 10 8 8 8 7 7 7 6 5 6 8 8 9 8 8 9 9 9 8 9 10 10 10 13 11 12 12 11 10 11 10 10 9 9
4 4 5 6 7 5 3 3 9 12 9 10 9 8 8 9 8 8 8 8 9 10 10 9 9 8 8 9 8 9 10 12 14 14 13 11 12 11 9 9 10 10 10 10 9
5 5 6 6 4 5 3 7 12 11 10 9 9 9 10 9 9 8 9 9 8 8 10 11 12 9 9 9 10 9 10 12 15 14 13 11 13 11 9 9 9 9 10 9 9
6 5 5 6 4 3 6 10 10 9 9 10 9 10 10 9 9 9 9 10 9 8 11 11 11 9 9 8 9 10 11 9 11 11 13 11 11 9 9 10 10 10 9 9 9
4 5 6 5 4 5 7 10 10 9 9 9 11 10 11 10 10 10 10 10 10 9 8 9 12 10 9 8 8 9 8 11 11 15 15 12 12 11 11 10 10 10 10 9 9
5 7 6 5 5 6 9 10 10 9 9 9 10 11 10 11 10 10 11 11 10 9 8 9 10 11 9 10 10 10 10 10 10 11 14 15 13 9 8 8 9 9 9 9 9
6 9 6 5 7 7 9 9 11 10 9 10 9 10 10 11 10 10 11 11 10 9 10 9 9 11 11 9 8 9 10 10 12 13 11 12 12 8 7 7 8 9 9 9 8
7 7 5 6 10 10 10 12 11 11 11 11 11 11 10 11 12 10 11 11 10 9 10 9 10 13 12 10 9 10 10 10 10 10 13 13 12 8 7 7 7 8 9 9 8
8 9 7 7 8 9 10 11 13 11 12 11 12 11 11 12 11 12 11 12 11 11 10 10 10 11 13 13 11 11 11 11 11 13 12 12 11 10 9 8 8 8 8 8 8
8 10 10 9 10 9 10 11 12 13 12 11 12 12 12 13 13 13 12 12 11 11 11 10 13 12 11 11 11 12 12 11 12 11 13 11 12 10 9 8 8 8 8 8 8
8 9 9 11 11 10 11 11 12 13 12 13 13 13 13 13 13 14 14 13 14 12 12 12 14 14 14 13 13 14 13 12 13 12 12 12 12 9 8 8 9 8 9 9 8
8 8 8 13 11 11 12 12 12 12 13 12 12 13 14 14 12 12 12 12 12 13 14 14 14 15 16 14 14 16 13 13 13 12 12 14 12 10 10 9 9 8 9 9 8